Regional Weather Roundup
Issued by NWS

Home | Current Version | Previous Version | Text Only | Print | Product List | Glossary Off
Versions: 1 2 3 4 5 6 7 8 9 10 11 12 13 14 15 16 17 18 19 20 21 22 23 24 25 26 27 28 29 30 31 32 33 34 35 36 37 38 39 40 41 42 43 44 45 46 47 48 49 50

000
ASUS43 KDTX 040110
RWRMI
MICHIGAN HOURLY REGIONAL WEATHER ROUNDUP
NATIONAL WEATHER SERVICE DETROIT/PONTIAC MI
900 PM EDT FRI JUL 03 2015

NOTE: "FAIR" INDICATES FEW OR NO CLOUDS BELOW 12,000 FEET WITH NO
SIGNIFICANT WEATHER AND/OR OBSTRUCTION TO VISIBILITY.

MIZ047>049-052>055-059>063-066>070-074>076-081>083-040200-
SOUTHEAST LOWER MICHIGAN

CITY           SKY/WX    TMP DP  RH WIND       PRES   REMARKS
ADRIAN         CLEAR     67  55  65 S3        29.92S
ALMA           PTCLDY    66  53  63 CALM      29.93S
ANN ARBOR      CLEAR     68  57  68 CALM      29.91S
BAD AXE        PTCLDY    64  51  62 NE3       29.94R
CARO           PTCLDY    63  56  77 CALM      29.92S
DETROIT CITY   CLEAR     67  51  56 E3        29.92S
DETROIT        MOCLDY    68  55  63 S5        29.92S
FLINT          PTCLDY    68  50  52 NW5       29.93R
GROSSE ILE     CLEAR     70  54  56 CALM      29.91S
HILLSDALE      CLEAR     68  60  77 CALM      29.93S
HOWELL         PTCLDY    69  52  55 CALM      29.93R

CITY           SKY/WX    TMP DP  RH WIND       PRES   REMARKS
JACKSON        CLEAR     67  56  67 CALM      29.93R
LAMBERTVILLE   CLEAR     67  53  60 CALM      29.92S
LANSING        CLEAR     69  48  47 CALM      29.93S
LAPEER         FAIR      63  56  78 CALM      29.92S
MASON          CLEAR     65  54  69 CALM      29.92F
MONROE         CLEAR     63  56  78 CALM      29.91S
MT. CLEMENS    CLEAR     65  55  70 S1        29.90S
PONTIAC        MOCLDY    70  51  51 NW3       29.91F
PORT HOPE        N/A     62  54  74 SE3       29.92S
PORT HURON     MOCLDY    64  59  82 CALM      29.92S
TRI CITIES     CLEAR     70  46  42 E3        29.93S
MIDLAND        FAIR      64  56  75 CALM      29.92S
TROY           CLEAR     71  52  52 CALM      29.93F
SAGINAW HB     PTCLDY    64  46  52 CALM      29.93R
$$
MIZ043>046-050>051-056>058-064>065-071>073-077>080-040200-
SOUTHWEST LOWER MICHIGAN

CITY           SKY/WX    TMP DP  RH WIND       PRES   REMARKS
BATTLE CREEK   CLEAR     70  55  59 W3        29.93R
BENTON HARBOR  CLEAR     64  57  78 NE3       29.93S
BIG RAPIDS     PTCLDY    68  50  52 W3        29.92S
COLDWATER      CLEAR     67  53  61 CALM      29.92S
FREMONT        FAIR      66  47  49 CALM      29.92F
HOLLAND        CLEAR     67  51  56 NW3       29.93F
GRAND RAPIDS   MOCLDY    71  50  47 NE3       29.92S
IONIA          FAIR      67  56  65 E3        29.92S
KALAMAZOO      CLEAR     72  51  47 CALM      29.92S
LUDINGTON      PTCLDY    64  51  63 CALM      29.92F
MARSHALL       CLEAR     67  58  73 CALM      29.92S
MOUNT PLEASANT CLEAR     64  54  70 CALM      29.92S
MUSKEGON       CLOUDY    66  49  54 CALM      29.92F
SOUTH HAVEN    CLEAR     64  55  72 CALM      29.93S
$$
MIZ016>042-040200-
NORTHERN LOWER MICHIGAN

CITY           SKY/WX    TMP DP  RH WIND       PRES   REMARKS
ALPENA         MOCLDY    69  49  48 S6        29.91S
BEAVER ISLAND  CLOUDY    60  52  73 SW12      29.89F
BELLAIRE       MOCLDY    66  57  73 CALM      29.91F
CADILLAC       PTCLDY    65  52  61 W3        29.94R
CHARLEVOIX     PTCLDY    67  49  52 S6        29.93F
FRANKFORT      PTCLDY    67  39  35 CALM      29.91F
GAYLORD        CLOUDY    68  52  56 CALM      29.93S
GRAYLING       MOCLDY    68  55  62 CALM      29.94S
HARBOR SPRINGS MOCLDY    63  56  77 CALM      29.90F
HOUGHTON LAKE  PTCLDY    66  53  63 S5        29.93S
MANISTEE       PTCLDY    64  46  52 CALM      29.93S
OSCODA         PTCLDY    63  50  61 CALM      29.92R
PELLSTON       CLOUDY    64  53  67 SW5       29.90F
ROGERS CITY    CLOUDY    66  55  66 CALM      29.90F
TRAVERSE CITY  CLOUDY    70  48  45 CALM      29.90S
$$
MIZ007>008-015-040200-
EASTERN UPPER MICHIGAN

CITY           SKY/WX    TMP DP  RH WIND       PRES   REMARKS
KINROSS        CLOUDY    61  55  82 CALM      29.89S
MACKINAC ISLAN CLOUDY    61  55  81 SW9       29.88F
NEWBERRY       MOCLDY    58  53  81 SW12      29.87S
S. S. MARIE    CLOUDY    64  53  67 S3        29.88S
MUNISING         N/A     64  57  78 CALM      29.85R
$$
MIZ004>006-011>014-085-040200-
CENTRAL UPPER MICHIGAN

CITY           SKY/WX    TMP DP  RH WIND       PRES   REMARKS
MANISTIQUE     CLOUDY    58  52  79 S12       29.86F
ESCANABA       CLOUDY    68  59  73 S6        29.85S
MENOMINEE      CLEAR     72  54  53 SW6       29.86F
SAWYER-GWINN   CLOUDY    66  57  72 NE10      29.87R
$$
MIZ001>003-009>011-084-040200-
WESTERN UPPER MICHIGAN

CITY           SKY/WX    TMP DP  RH WIND       PRES   REMARKS
IRON MOUNTAIN  CLEAR     71  58  63 SW5       29.86S
HOUGHTON       CLEAR     67  58  72 NW9       29.85S
COPPER HARBOR    N/A     68  59  73 VRB3      29.84S
IRONWOOD       MOCLDY    66  64  94 S6        29.84F
$$

ABBREVIATIONS USED IN REMARKS
   TC - TEMPERATURE IN CELSIUS
  WCI - WIND CHILL INDEX
   HX - HEAT INDEX
  VSB - VISIBILITY



USA.gov is the U.S. government's official web portal to all federal, state and local government web resources and services.